STARLINK-36830, 68110

Orbit data source: Space-Track

STARLINK-36830, 68110 is a payload satellite owned by SpaceX/Seattle (US) in SSO that was launched on Sun, 08 Mar 2026 UTC via an FALCON 9 launch vehicle from the Air Force Western Test Range (AFWTR). Payload-class satellites include a variety of spacecraft equipped with specific instruments for various scientific and technological missions. These include communications satellites like Starlink; space stations such as the ISS; scientific satellites like the Hubble; Earth observation satellites from companies like Planet Labs, Umbra, and HawkEye 360; GPS; miniature CubeSats for education and research; and military/defense satellites.

Loading next visibility...
Identifier
68110, 2026-044K
Orbit
SSO
Country
Flag of USUS
Related business
Manufacturer
SpaceX/Seattle
Mission
Operational spacecraft
Bus & Motor
STARLINK V2MO, Unknown motor
Mass
575 kg wet, ~530 kg dry
Launch date (UTC)
2026-03-08 (2 months ago)
Launch vehicle
FALCON 9
Launch site
Air Force Western Test Range (AFWTR)
Object type
Payload
Rocket body
Debris
Shape & HBR
Unknown shape, 17.7 m
Radar Cross Section
RCS unknown

Expand to show TLE details & history
Last TLE update: 10 hours ago

TLE from 10 hours ago
0 STARLINK-36830
1 68110U 26044K   26119.46691078  .00012095  00000-0  37635-3 0  9996
2 68110  97.2853  80.4374 0001705  92.7571 267.3867 15.33446486  9363
Epoch: 2026-04-29T11:12Z
TLE epoch observation values (Epoch: 2026-04-29T11:12:21.091Z)
Latitude
-0.00001°
Longitude
54.92206°
Altitude
468.704 km
Speed
7.632 km/s
True Right ascension
05h 21m 44s
True Declination
0° 00' 00"
Sunlit
Object was in daylight at epoch
Visualization orbit readout
Latitude
Unknown
Longitude
Unknown
Altitude
Unknown
Speed
Unknown
Apparent Right ascension
Unknown
Apparent Declination
Unknown
Sunlit
N/A
Visualization observer readout
Local Sidereal Time
04:39:48
Azimuth
Unknown
Elevation
Unknown
Doppler factor
Unknown
Orbital elements
Apogee altitude
463.648 km
Perigee altitude
461.315 km
Semi-major axis
6,840.619 km
Eccentricity
0.00017
Inclination
97.2853°
RAAN
80.4374°
Arg. of periapsis
92.7571°
True anomaly
267.36718°
Mean anomaly
267.3867°
Eccentric anomaly
267.37694°
Mean motion
3.83619 °/min
Orbital period
93.84 mins
BSTAR
0.00037635
Loading maneuver chart data...
Computing Atmospheric mass density...
Loading historical data...
Loading historical data...
Loading historical data...
Loading historical data...
Loading historical data...
Loading historical data...
Loading historical data...

Documentation

Showing up to 5 results
|